sat.trackr.live / text

‹ back to catalog

STARLINK-31064

NORAD 58631 · 2023-203P

PAYLOAD ACTIVE UNKNOWN

§ Identity

Operator
Country
US
Launch date
2023-12-23
Launch site
AFETR
Launch vehicle
Mass (kg)
RCS (m²)

Purposes: comms

External: N2YO · Heavens-Above · Gunter

§ Orbital elements

Epoch: 2026-09-20T03:00:40.372992Z

Period
94.27 min
Inclination
43.0031°
Eccentricity
0.0000931
Mean motion
15.27578759 rev/d
Perigee alt
482.4 km
Apogee alt
483.7 km
Semi-major
6,861.2 km
B*
2.7670e-5
RAAN
52.8166°
Arg perigee
271.8250°
Mean anomaly
88.2495°
Rev number
15,442

§ Raw data

STARLINK-310641 58631U 23203P   26263.12546728  .00000499  00000+0  27670-4 0  99942 58631  43.0031  52.8166 0000931 271.8250  88.2495 15.27578759154420

JSON: /api/v1/satellites/58631 · /tle

For live sub-satellite position, see the globe view (requires WebGL).

§ Visibility from observer

Set your observer location to see the next 7 days of passes ≥ 10°. The values pass through the URL so the page stays shareable.

No JS? Fill the form by hand. The geolocation button needs JavaScript.